Date String (YYYY-MM-DD hh:mm:ss) UTC,Instrument flags,absolute air pressure of the measurement (hPa),sample flow rate (lpm),inlet stack bypass flow (lpm),air temperature of the measurement (°C),ambient temperature measured by the external sensor (°C),aerosol sample conditioner tube jacket temperature (°C),OPC LED temperature (°C),internal box temperature (°C),relative humidity of the measurement (%),span deviation,mass concentration of particles derived from Lorenz-Mie calculation of OPC scattering (μg/m³),mass concentration of particles derived from Lorenz-Mie calculation of OPC scattering (μg/m³),mass concentration of particles derived from Lorenz-Mie calculation of OPC scattering (μg/m³)
DateTimeUTC,F1_M11,P_M11,Q1_M11,Q2_M11,T1_M11,T2_M11,T3_M11,T4_M11,T5_M11,U1_M11,ZSPAN_M11,X2_M11,X0_M11,X1_M11
2024-01-06 03:00:00,SystemResetWarning,0823.4,5.00,000.00,022.0,021.2,000.0,030.3,023.3,7.7,0000.0,0001.18,0005.06,0000.99
2024-01-06 03:01:00,SystemResetWarning,0823.5,4.99,000.00,022.0,021.3,000.0,030.3,023.4,7.7,0000.0,0001.20,0005.11,0001.01
2024-01-06 03:02:00,SystemResetWarning,0823.5,5.00,000.00,022.0,021.3,000.0,030.3,023.4,7.6,0000.0,0001.21,0005.11,0001.01
2024-01-06 03:03:00,SystemResetWarning,0823.4,5.01,000.00,022.0,021.3,000.0,030.3,023.3,7.6,0000.0,0001.24,0005.03,0001.03
2024-01-06 03:04:00,SystemResetWarning,0823.4,5.00,000.00,022.0,021.3,000.0,030.3,023.3,7.6,0000.0,0001.24,0004.68,0001.05
2024-01-06 03:05:00,SystemResetWarning,0823.3,5.01,000.00,022.0,021.3,000.0,030.3,023.4,7.6,0000.0,0001.27,0004.29,0001.08
2024-01-06 03:06:00,SystemResetWarning,0823.3,5.00,000.00,022.0,021.3,000.0,030.3,023.4,7.5,0000.0,0001.29,0003.80,0001.09
2024-01-06 03:07:00,SystemResetWarning,0823.3,5.00,000.00,022.0,021.3,000.0,030.3,023.3,7.5,0000.0,0001.29,0002.97,0001.09
2024-01-06 03:08:00,SystemResetWarning,0823.3,5.00,000.00,022.0,021.3,000.0,030.3,023.4,7.4,0000.0,0001.30,0002.99,0001.11
2024-01-06 03:09:00,SystemResetWarning,0823.3,5.00,000.00,022.0,021.3,000.0,030.3,023.4,7.4,0000.0,0001.29,0002.96,0001.12
2024-01-06 03:10:00,SystemResetWarning,0823.3,5.00,000.00,022.0,021.3,000.0,030.3,023.4,7.4,0000.0,0001.27,0002.90,0001.13
2024-01-06 03:11:00,SystemResetWarning,0823.3,5.00,000.00,022.0,021.3,000.0,030.3,023.4,7.3,0000.0,0001.27,0002.69,0001.14
2024-01-06 03:12:00,SystemResetWarning,0823.4,5.00,000.00,022.0,021.3,000.0,030.3,023.4,7.3,0000.0,0001.31,0002.72,0001.16
2024-01-06 03:13:00,SystemResetWarning,0823.3,4.99,000.00,022.0,021.3,000.0,030.3,023.4,7.3,0000.0,0001.31,0002.73,0001.17
2024-01-06 03:14:00,SystemResetWarning,0823.4,5.00,000.00,022.0,021.3,000.0,030.3,023.3,7.3,0000.0,0001.32,0002.74,0001.17
2024-01-06 03:15:00,SystemResetWarning,0823.3,5.01,000.00,022.0,021.3,000.0,030.3,023.4,7.3,0000.0,0001.35,0002.84,0001.17
2024-01-06 03:16:00,SystemResetWarning,0823.4,5.00,000.00,022.0,021.3,000.0,030.3,023.3,7.3,0000.0,0001.36,0002.92,0001.18
2024-01-06 03:17:00,SystemResetWarning,0823.3,5.01,000.00,022.0,021.3,000.0,030.3,023.3,7.3,0000.0,0001.39,0002.26,0001.20
2024-01-06 03:18:00,SystemResetWarning,0823.3,5.01,000.00,022.0,021.2,000.0,030.3,023.2,7.4,0000.0,0001.43,0002.88,0001.21
2024-01-06 03:19:00,SystemResetWarning,0823.3,5.01,000.00,021.9,021.2,000.0,030.3,023.2,7.4,0000.0,0001.47,0003.05,0001.20
2024-01-06 03:20:00,SystemResetWarning,0823.3,5.00,000.00,021.9,021.2,000.0,030.3,023.2,7.5,0000.0,0001.50,0003.20,0001.20
2024-01-06 03:21:00,SystemResetWarning,0823.3,4.99,000.00,021.9,021.2,000.0,030.3,023.2,7.6,0000.0,0001.53,0003.47,0001.20
2024-01-06 03:22:00,SystemResetWarning,0823.3,5.00,000.00,021.9,021.2,000.0,030.3,023.2,7.6,0000.0,0001.50,0003.43,0001.18
2024-01-06 03:23:00,SystemResetWarning,0823.3,5.00,000.00,021.9,021.2,000.0,030.3,023.2,7.7,0000.0,0001.49,0003.41,0001.16
2024-01-06 03:24:00,SystemResetWarning,0823.3,4.99,000.00,021.9,021.2,000.0,030.3,023.2,7.8,0000.0,0001.49,0003.43,0001.15
2024-01-06 03:25:00,SystemResetWarning,0823.3,5.00,000.00,021.9,021.2,000.0,030.3,023.2,7.9,0000.0,0001.46,0003.40,0001.14
2024-01-06 03:26:00,SystemResetWarning,0823.3,5.01,000.00,021.9,021.2,000.0,030.3,023.2,8.0,0000.0,0001.42,0003.30,0001.12
2024-01-06 03:27:00,SystemResetWarning,0823.3,5.01,000.00,021.9,021.2,000.0,030.2,023.2,8.1,0000.0,0001.40,0003.27,0001.10
2024-01-06 03:28:00,SystemResetWarning,0823.3,5.01,000.00,021.9,021.2,000.0,030.2,023.2,8.1,0000.0,0001.38,0002.93,0001.08
2024-01-06 03:29:00,SystemResetWarning,0823.3,5.00,000.00,021.9,021.2,000.0,030.2,023.2,8.2,0000.0,0001.37,0002.39,0001.07
2024-01-06 03:30:00,SystemResetWarning,0823.4,5.00,000.00,021.9,021.2,000.0,030.2,023.1,8.2,0000.0,0001.34,0002.23,0001.05
2024-01-06 03:31:00,SystemResetWarning,0823.4,5.00,000.00,021.9,021.1,000.0,030.2,023.1,8.2,0000.0,0001.33,0003.34,0001.05
2024-01-06 03:32:00,SystemResetWarning,0823.4,5.00,000.00,021.9,021.1,000.0,030.2,023.1,8.2,0000.0,0001.31,0003.54,0001.04
2024-01-06 03:33:00,SystemResetWarning,0823.4,5.00,000.00,021.9,021.0,000.0,030.2,023.1,8.2,0000.0,0001.34,0003.70,0001.05
2024-01-06 03:34:00,SystemResetWarning,0823.4,5.00,000.00,021.9,021.0,000.0,030.2,023.1,8.2,0000.0,0001.38,0004.60,0001.06
2024-01-06 03:35:00,SystemResetWarning,0823.4,5.00,000.00,021.9,021.0,000.0,030.2,023.0,8.1,0000.0,0001.41,0004.85,0001.08
2024-01-06 03:36:00,SystemResetWarning,0823.4,5.00,000.00,021.8,021.0,000.0,030.2,023.0,8.0,0000.0,0001.48,0005.24,0001.11
2024-01-06 03:37:00,SystemResetWarning,0823.4,5.00,000.00,021.8,021.0,000.0,030.2,023.1,7.9,0000.0,0001.55,0005.40,0001.15
2024-01-06 03:38:00,SystemResetWarning,0823.4,5.00,000.00,021.8,021.0,000.0,030.2,023.1,7.9,0000.0,0001.62,0005.95,0001.20
2024-01-06 03:39:00,SystemResetWarning,0823.4,5.00,000.00,021.8,021.0,000.0,030.2,023.1,7.8,0000.0,0001.69,0006.51,0001.24
2024-01-06 03:40:00,SystemResetWarning,0823.4,5.00,000.00,021.8,021.0,000.0,030.2,023.1,7.8,0000.0,0001.76,0006.88,0001.30
2024-01-06 03:41:00,SystemResetWarning,0823.4,4.99,000.00,021.8,021.0,000.0,030.2,023.1,7.7,0000.0,0001.88,0007.26,0001.36
2024-01-06 03:42:00,SystemResetWarning,0823.5,5.00,000.00,021.8,021.0,000.0,030.2,023.1,7.7,0000.0,0001.97,0006.61,0001.42
2024-01-06 03:43:00,SystemResetWarning,0823.4,4.99,000.00,021.8,021.0,000.0,030.2,023.0,7.7,0000.0,0002.06,0006.92,0001.47
2024-01-06 03:44:00,SystemResetWarning,0823.4,4.99,000.00,021.8,021.0,000.0,030.2,023.0,7.7,0000.0,0002.12,0007.59,0001.54
2024-01-06 03:45:00,SystemResetWarning,0823.4,5.00,000.00,021.8,021.0,000.0,030.2,023.0,7.8,0000.0,0002.19,0007.55,0001.59
2024-01-06 03:46:00,SystemResetWarning,0823.4,5.01,000.00,021.8,021.0,000.0,030.1,023.0,7.9,0000.0,0002.22,0007.39,0001.63
2024-01-06 03:47:00,SystemResetWarning,0823.5,5.01,000.00,021.8,021.0,000.0,030.1,023.0,7.9,0000.0,0002.24,0007.18,0001.65
2024-01-06 03:48:00,SystemResetWarning,0823.4,4.99,000.00,021.8,021.0,000.0,030.1,023.0,8.1,0000.0,0002.24,0007.13,0001.65
2024-01-06 03:49:00,SystemResetWarning,0823.4,5.00,000.00,021.8,021.0,000.0,030.1,023.0,8.2,0000.0,0002.25,0007.16,0001.63
2024-01-06 03:50:00,SystemResetWarning,0823.4,4.99,000.00,021.8,021.0,000.0,030.1,023.0,8.3,0000.0,0002.19,0006.59,0001.59
2024-01-06 03:51:00,SystemResetWarning,0823.4,5.00,000.00,021.7,021.0,000.0,030.1,023.0,8.5,0000.0,0002.17,0007.06,0001.56
2024-01-06 03:52:00,SystemResetWarning,0823.4,5.00,000.00,021.7,021.0,000.0,030.1,023.0,8.6,0000.0,0002.07,0007.12,0001.53
2024-01-06 03:53:00,SystemResetWarning,0823.4,5.01,000.00,021.7,021.0,000.0,030.1,023.0,8.8,0000.0,0001.99,0006.98,0001.48
2024-01-06 03:54:00,SystemResetWarning,0823.4,5.00,000.00,021.7,021.0,000.0,030.1,023.0,8.9,0000.0,0001.90,0006.64,0001.43
2024-01-06 03:55:00,SystemResetWarning,0823.5,5.00,000.00,021.7,021.0,000.0,030.1,023.0,9.0,0000.0,0001.84,0006.06,0001.37
2024-01-06 03:56:00,SystemResetWarning,0823.4,5.00,000.00,021.7,021.0,000.0,030.1,023.0,9.1,0000.0,0001.74,0005.30,0001.32
2024-01-06 03:57:00,SystemResetWarning,0823.4,5.00,000.00,021.7,021.0,000.0,030.1,023.0,9.2,0000.0,0001.67,0005.22,0001.27
2024-01-06 03:58:00,SystemResetWarning,0823.5,5.00,000.00,021.7,021.0,000.0,030.1,023.0,9.3,0000.0,0001.67,0005.31,0001.25
2024-01-06 03:59:00,SystemResetWarning,0823.4,5.00,000.00,021.7,021.0,000.0,030.1,023.0,9.3,0000.0,0001.73,0005.42,0001.26
